User: anonymous   Login
Location: Washington
(38.8950°N, 77.0370°W)
Time: 08:45:16
(UTC-05:00)
Language:

IDEFIX/ARIANE 42P - Orbit

View from above orbital plane
View from above orbital plane
View from above satellite
View from above satellite

Ground track
Ground track

The orbit data is extracted from the following two-line orbital elements,

1 27422U 02021B   16345.14070983 -.00000013  00000-0  10799-4 0  9998
2 27422  98.2275 349.9109 0013468  78.4019 281.8675 14.29253068759679
Epoch (UTC): 10 December 2016 03:22:37
Eccentricity: 0.0013468
inclination: 98.2275°
perigee height: 784 km
apogee height: 804 km
right ascension of ascending node: 349.9109°
argument of perigee: 78.4019°
revolutions per day: 14.29253068
mean anomaly at epoch: 281.8675°
orbit number at epoch: 75967

The dashed part of the orbit path shows where the satellite is in the earth's shadow,  

DLR